Weather History for Setif, Algeria

Change the Weather History Date:

Tuesday, February 12, 2013

  Actual Average Record
Temperature  
Mean Temperature 34 °F -  
Max Temperature 41 °F - - ()
Min Temperature 28 °F - - ()
Degree Days  
Heating Degree Days 30    
Moisture  
Dew Point 29 °F    
Average Humidity 84    
Maximum Humidity 100    
Minimum Humidity 55    
Precipitation  
Precipitation 0.01 in - - ()
Sea Level Pressure  
Sea Level Pressure 29.81 in    
Wind  
Wind Speed 11 mph ()    
Max Wind Speed 24 mph    
Max Gust Speed -    
Visibility 4.3 miles    
Events Snow    
T = Trace of Precipitation, MM = Missing Value Source: Averaged Metar Reports

Daily Weather History Graph

Daily Weather History Graph

Search for Another Location

Airport:

Trip Planner

Search our weather history database for the weather conditions in past years. The results will help you decide how hot, cold, wet, or windy it might be!

Date:

Astronomy

Feb. 12, 2013 Rise Set
Actual Time 7:29 AM CET 6:16 PM CET
Civil Twilight 7:02 AM CET 6:43 PM CET
Nautical Twilight 6:32 AM CET 7:13 PM CET
Astronomical Twilight 6:02 AM CET 7:43 PM CET
Moon 8:23 AM CET (2/12) 8:54 PM CET (2/12)
Length of Visible Light 11h 40m
Length of Day
10h 47m
Waxing Crescent, 6% of the Moon is Illuminated
Feb 12
Waxing Crescent
Feb 17
First Quarter
Feb 25
Full
Mar 4
Last Quarter
Mar 11
New

Hourly Weather History & Observations

Time (CET) Temp. Windchill Dew Point Humidity Pressure Visibility Wind Dir Wind Speed Gust Speed Precip Events Conditions
12:00 AM 32.0 °F 27.5 °F 28.4 °F 87% 29.74 in 5.0 mi West 4.6 mph - N/A   Mostly Cloudy
1:00 AM 32 °F - 31 °F 92%  in 6 mi West 13.8 mph - -   Partly Cloudy
1:00 AM 32.0 °F 22.1 °F 30.2 °F 93% 29.74 in 6.2 mi West 13.8 mph - N/A   Mostly Cloudy
2:00 AM 32.0 °F 23.0 °F 30.2 °F 93% 29.74 in 3.7 mi West 11.5 mph - N/A Snow Light Snow
3:00 AM 30.2 °F 20.8 °F 28.4 °F 93% 29.74 in 3.7 mi West 11.5 mph - N/A Snow Light Snow
4:00 AM 31 °F - 29 °F 90%  in 4 mi West 9.2 mph - - Snow Light Snow Showers
5:00 AM 30.2 °F 20.8 °F 26.6 °F 86% 29.74 in 6.2 mi West 11.5 mph - N/A   Mostly Cloudy
6:00 AM 28.4 °F 19.7 °F 26.6 °F 93% 29.77 in 6.2 mi West 9.2 mph - N/A   Mostly Cloudy
7:00 AM 29 °F - 27 °F 89%  in 4 mi West 6.9 mph - - Snow Light Snow
7:00 AM 30.2 °F 23.4 °F 26.6 °F 86% 29.77 in 3.7 mi West 6.9 mph - N/A Snow Light Snow
8:00 AM 28.4 °F 21.2 °F 26.6 °F 93% 29.77 in 5.0 mi West 6.9 mph - N/A   Mostly Cloudy
9:00 AM 30.2 °F 21.9 °F 26.6 °F 86% 29.80 in 3.7 mi West 9.2 mph - N/A Snow Light Snow
10:00 AM 32 °F - 30 °F 87%  in 1 mi West 6.9 mph - - Snow Light Snow
10:00 AM 32.0 °F 25.6 °F 30.2 °F 93% 29.80 in 0.7 mi West 6.9 mph - N/A Snow Light Snow
11:00 AM 33.8 °F 27.7 °F 28.4 °F 81% 29.80 in 6.2 mi West 6.9 mph - N/A   Scattered Clouds
12:00 PM 37.4 °F 26.4 °F 28.4 °F 70% 29.83 in 6.2 mi West 23.0 mph - N/A   Scattered Clouds
1:00 PM 38 °F - 28 °F 55%  in 6 mi West 24.2 mph - -   Partly Cloudy
1:00 PM 37.4 °F 26.1 °F 28.4 °F 70% 29.80 in 6.2 mi West 24.2 mph - N/A   Scattered Clouds
2:00 PM 39.2 °F 28.7 °F 30.2 °F 70% 29.80 in 6.2 mi West 23.0 mph - N/A   Mostly Cloudy
3:00 PM 39.2 °F 30.8 °F 30.2 °F 70% 29.80 in 6.2 mi West 15.0 mph - N/A   Mostly Cloudy
4:00 PM 40 °F - 30 °F 57%  in 6 mi West 20.7 mph - -   Mostly Cloudy
4:00 PM 41.0 °F 31.6 °F 30.2 °F 65% 29.80 in 6.2 mi West 20.7 mph - N/A   Mostly Cloudy
5:00 PM 35.6 °F 25.2 °F 32.0 °F 87% 29.80 in 5.0 mi NW 18.4 mph - N/A Snow Light Snow
6:00 PM 37.4 °F 26.4 °F 26.6 °F 65% 29.83 in 2.5 mi West 23.0 mph - N/A Snow Light Snow
7:00 PM 33 °F - 31 °F 90%  in 2 mi WNW 11.5 mph - - Snow Light Snow
7:00 PM 32.0 °F 23.0 °F 32.0 °F 100% 29.86 in 2.5 mi WNW 11.5 mph - N/A Snow Light Snow
8:00 PM 32.0 °F 24.2 °F 30.2 °F 93% 29.89 in 2.5 mi West 9.2 mph - N/A Snow Light Snow
9:00 PM 32.0 °F 23.0 °F 30.2 °F 93% 29.89 in 2.5 mi West 11.5 mph - N/A Snow Light Snow
10:00 PM 32.0 °F 24.2 °F 30.2 °F 93% 29.92 in 2.5 mi West 9.2 mph - N/A Snow Light Snow
11:00 PM 32.0 °F 24.2 °F 32.0 °F 100% 29.92 in 2.5 mi WSW 9.2 mph - N/A Snow Light Snow